Flag for U.S.A. Weather past 2 weeks in Wichita, Kansas, U.S.A.

Now
74 °F

Overcast.


Feels Like: 74 °F
Forecast: 74 / 80 °F
Wind: 8 mph from South

Location: Wichita Mid-Continent Airport

Current Time: Aug 4, 2015 at 7:52:38 AM

Latest Report: Aug 4, 2015 at 6:53 AM


Visibility: 10 mi

Pressure: 29.90 "Hg

Humidity: 82%

Dew point: 68 °F

Location of WichitaLocation

Historic Weather in Wichita — Graph

°F

Wichita temperature yesterday

Maximum temperature yesterday: 92 °F (at 4:53 PM)
Minimum temperature yesterday: 71 °F (at 3:53 AM)
Average temperature yesterday: 81 °F

Past Weeks' High & Low Weather Summary

 TemperatureHumidityPressure
High100 °F (Jul 24, 2:53 PM)94% (Aug 1, 5:53 AM)30.23 "Hg (Aug 1, 5:53 AM)
Low70 °F (Jul 22, 4:53 AM)29% (Jul 27, 5:53 PM)29.77 "Hg (Jul 26, 4:53 AM)
Average82 °F67%29.91 "Hg
* Reported Jul 20 6:53 AM — Aug 4 6:53 AM, Wichita, Weather by CustomWeather, © 2015

Note: Actual official high and low records may vary slightly from our data, if they occured in-between our weather recording intervals... More about our weather records

Advertising

Wichita weather history for previous 24 hours

 ConditionsComfort  
Time TempWeatherWind HumidityBarometerVisibility
6:53 AM
Tue, Aug 4
74 °FOvercast.8 mph82%29.90 "Hg10 mi
5:53 AM74 °FPassing clouds.3 mph82%29.89 "Hg10 mi
4:53 AM74 °FPartly cloudy.5 mph79%29.87 "Hg10 mi
3:53 AM75 °FPassing clouds.6 mph76%29.88 "Hg10 mi
2:53 AM74 °FPassing clouds.7 mph79%29.87 "Hg10 mi
1:53 AM76 °FPassing clouds.5 mph74%29.88 "Hg10 mi
12:53 AM76 °FPassing clouds.5 mph77%29.88 "Hg10 mi
11:53 PM
Mon, Aug 3
78 °FPassing clouds.6 mph74%29.89 "Hg10 mi
10:53 PM80 °FPassing clouds.9 mph69%29.89 "Hg10 mi
9:53 PM81 °FPassing clouds.9 mph67%29.88 "Hg10 mi
8:53 PM84 °FScattered clouds.9 mph63%29.86 "Hg10 mi
7:53 PM86 °FScattered clouds.10 mph59%29.85 "Hg10 mi
6:53 PM89 °FScattered clouds.12 mph55%29.85 "Hg10 mi
5:53 PM91 °FBroken clouds.12 mph49%29.85 "Hg10 mi
4:53 PM92 °FBroken clouds.13 mph51%29.86 "Hg10 mi
3:53 PM91 °FBroken clouds.7 mph49%29.88 "Hg10 mi
2:53 PM91 °FPartly sunny.8 mph50%29.89 "Hg10 mi
1:53 PM90 °FPartly sunny.8 mph52%29.88 "Hg10 mi
12:53 PM89 °FBroken clouds.10 mph53%29.88 "Hg10 mi
11:53 AM87 °FPartly sunny.10 mph59%29.89 "Hg10 mi
10:53 AM84 °FMostly cloudy.15 mph61%29.90 "Hg10 mi
9:53 AM81 °FPartly sunny.13 mph67%29.90 "Hg10 mi
8:53 AM78 °FPartly sunny.13 mph71%29.90 "Hg10 mi
7:53 AM74 °FBroken clouds.10 mph79%29.90 "Hg10 mi
Weather by CustomWeather, © 2015

See weather overviewHow to use our weather pages